sat.trackr.live / text

‹ back to catalog

2023-091D

NORAD 57169 · 2023-091D

PAYLOAD ACTIVE UNKNOWN

§ Identity

Operator
Country
CIS
Launch date
2023-06-27
Launch site
VOSTO
Launch vehicle
Mass (kg)
RCS (m²)

External: N2YO · Heavens-Above · Gunter

§ Orbital elements

Epoch: 2026-05-25T04:55:54.538176Z

Period
94.50 min
Inclination
97.5124°
Eccentricity
0.0010659
Mean motion
15.23745032 rev/d
Perigee alt
487.2 km
Apogee alt
501.9 km
Semi-major
6,872.7 km
B*
3.4687e-4
RAAN
206.7021°
Arg perigee
172.7939°
Mean anomaly
187.3453°
Rev number
16,066

§ Raw data

2023-091D1 57169U 23091D   26145.20549234  .00008280  00000+0  34687-3 0  99982 57169  97.5124 206.7021 0010659 172.7939 187.3453 15.23745032160667

JSON: /api/v1/satellites/57169 · /tle

For live sub-satellite position, see the globe view (requires WebGL).

§ Visibility from observer

Set your observer location to see the next 7 days of passes ≥ 10°. The values pass through the URL so the page stays shareable.

No JS? Fill the form by hand. The geolocation button needs JavaScript.